Location: Cranbrook Institute of Science
(42.5830°N, 83.2450°W)
Time: 12:45:52
(UTC-04:00)

Daily predictions for brighter satellites

Satellite Brightness Start Highest point End
(mag) Time Altitude Azimuth Time Altitude Azimuth Time Altitude Azimuth
BREEZE-M DEB (TANK) 4.2 21:18:17 10° WNW 21:22:07 70° SSW 21:35:08 10° ESE
OAO 2 Rocket 4.3 21:21:29 10° SW 21:25:36 27° SSE 21:29:47 10° ESE
Cosmos 2315 Rocket 4.1 21:20:55 10° S 21:27:11 87° E 21:33:33 10° N
CZ-3A R/B 3.0 21:30:18 10° SSE 21:31:29 11° SSE 21:32:26 10° SE
Cosmos 2184 Rocket 4.5 21:25:46 10° N 21:31:51 45° ENE 21:37:50 10° SSE
Cosmos 2074 Rocket 4.4 21:26:05 10° N 21:32:05 46° ENE 21:38:04 10° SSE
Cosmos 1536 Rocket 3.6 21:28:42 10° S 21:32:56 56° E 21:37:11 10° NNE
Cosmos 1437 2.9 21:31:55 10° S 21:35:01 50° E 21:38:11 10° NNE
CZ-4B DEB 2.6 21:32:48 10° SSE 21:35:44 62° ENE 21:38:43 10° N
Helios 1A 3.0 21:31:40 10° SSE 21:35:54 89° E 21:40:08 10° NNW
Lacrosse 5 rocket 4.4 21:33:01 10° WNW 21:36:07 18° NNW 21:39:17 10° NNE
Meteor 1-29 2.9 21:36:37 10° NNE 21:39:58 61° E 21:43:18 10° S
SJ-11-01 4.3 21:38:22 10° SSE 21:43:03 87° ENE 21:47:46 10° NNW
Cosmos 1656 Rocket 3.7 21:38:46 10° NNW 21:44:13 69° ENE 21:49:41 10° SSE
Cosmos 2369 Rocket 4.0 21:40:14 10° NW 21:45:00 28° WSW 21:49:45 10° SSW
YAOGAN 6 2.7 21:42:29 10° SSE 21:45:52 53° ENE 21:49:18 10° N
SAR-Lupe-4 3.6 21:42:31 10° S 21:46:05 81° WSW 21:49:42 10° NNW
ERS-1 Rocket 3.4 21:41:54 10° SE 21:46:42 49° ENE 21:51:32 10° N
Cosmos 1544 Rocket 4.3 21:45:12 10° NNW 21:49:25 53° W 21:53:37 10° S
Cosmos 1818 3.6 21:45:04 10° SSW 21:50:30 88° WNW 21:56:00 10° NNE
RESURS DK-1 3.8 21:48:06 10° SW 21:52:02 42° WNW 21:56:00 10° NNE
Cosmos 405 Rocket 2.7 21:48:22 10° S 21:52:03 59° E 21:55:49 10° NNE
Resurs 01 Rocket 3.9 21:51:29 10° SSW 21:55:02 23° W 21:58:36 10° NW
NOSS 2-2 (D) 3.4 21:51:40 10° SSW 21:55:37 74° ESE 22:00:11 10° NE
H-2A R/B 3.5 21:52:51 10° ESE 21:56:27 22° ENE 22:00:12 10° NNE
Cosmos 1975 3.9 21:53:28 10° NNW 21:57:22 45° W 22:01:16 10° SSW
Cosmos 1943 Rocket 3.4 21:55:01 10° NW 22:00:11 39° WSW 22:05:17 10° S
Cosmos 2112 Rocket 4.2 21:55:12 10° S 22:00:12 49° ESE 22:05:13 10° NNE
Cosmos 773 Rocket 4.4 21:55:52 10° SSW 22:00:59 67° WNW 22:06:08 10° NNE
CENTAUR R/B 3.2 21:53:33 10° NW 22:01:30 87° WSW 22:09:18 13° SSE
Cosmos 1025 Rocket 3.8 21:58:34 12° SSE 22:01:58 32° E 22:05:46 10° NNE
USA 81 4.3 21:58:40 10° S 22:03:56 73° W 22:09:14 10° N
Cosmos 1441 Rocket 3.6 22:01:18 10° SSE 22:04:48 42° E 22:08:22 10° NNE
Meteor 1-13 Rocket 4.4 22:00:45 10° S 22:06:43 89° E 22:12:40 10° N
Nadezhda 1 Rocket 4.1 22:01:49 10° S 22:08:02 62° E 22:14:21 10° NNE
PSLV R/B 3.0 22:05:18 10° W 22:08:24 66° S 22:10:40 17° E
Helios 1B rocket 3.6 22:06:22 10° N 22:10:21 46° WNW 22:14:18 10° SW
NOAA 11 4.2 22:07:47 13° SSE 22:12:39 67° ENE 22:18:03 10° N
Cosmos 1939 Rocket 4.0 22:09:26 10° SSW 22:13:03 39° W 22:16:43 10° NNW
NOSS 2-2 (C) 3.7 22:10:24 10° SW 22:14:25 73° NW 22:19:04 10° NNE
Cosmos 2154 Rocket 4.3 22:09:19 10° N 22:15:31 52° ENE 22:20:26 16° SSE
COSMOS 2455 4.0 22:10:38 10° NW 22:16:08 38° WSW 22:21:35 10° S
COSMOS 2406 3.2 22:10:51 10° SSW 22:16:36 87° ESE 22:22:20 10° NNE
SL-08 RB Rocket 4.3 22:14:43 18° SE 22:17:34 39° ENE 22:21:45 10° N
ARGOS 3.4 22:13:33 16° SE 22:17:43 54° ENE 22:23:00 10° N
Cosmos 374 Rocket 4.5 22:14:00 10° NW 22:17:44 64° WSW 22:20:27 19° SSE
SL-27 R/B 2.6 22:14:51 10° S 22:18:25 56° ESE 22:22:02 10° NNE
Cosmos 1680 Rocket 3.5 22:18:31 10° SSW 22:23:45 88° WNW 22:29:00 10° NNE
SPOT 5 2.8 22:23:04 21° SE 22:25:50 57° ENE 22:30:06 10° N
Cosmos 2056 Rocket 4.2 22:21:14 10° N 22:26:08 40° ENE 22:29:10 21° ESE
Cosmos 1346 4.0 22:24:12 10° SSW 22:26:51 43° WNW 22:29:32 10° N
H-2A R/B 3.9 22:24:49 15° E 22:26:59 20° ENE 22:30:16 10° NNE
Cosmos 1743 4.0 22:24:56 10° NNW 22:28:34 39° W 22:32:12 10° SSW
Cosmos 2082 Rocket 3.7 22:28:02 17° ESE 22:28:52 17° E 22:32:24 10° ENE
Cosmos 405 2.9 22:29:26 10° N 22:33:01 87° E 22:34:57 25° S
Terra 3.1 22:37:12 20° ESE 22:39:20 28° ENE 22:43:21 10° N
ASTEX 1 4.0 22:36:35 10° S 22:41:24 55° W 22:46:13 10° NNW
Cosmos 2341 Rocket 4.1 22:37:21 10° N 22:43:40 63° E 22:47:39 24° SSE
Cosmos 2369 4.5 22:38:25 10° NNW 22:43:50 41° ENE 22:46:58 23° ESE
MetOp-B 4.3 22:40:01 17° S 22:44:09 71° WSW 22:49:32 10° NNW
Tiangong 2 1.3 22:42:30 10° SW 22:45:33 46° SSE 22:45:36 46° SSE
COSMOS 2487 4.1 22:47:21 20° E 22:47:21 20° E 22:49:27 10° NE
SPOT 1/Viking Rocket 3.6 22:44:16 25° SSE 22:47:16 70° ENE 22:52:25 10° N
Cosmos 1437 Rocket 2.6 22:44:04 10° N 22:47:54 75° E 22:49:25 35° SSE
Okean 1-7 Rocket 4.0 22:46:16 10° SSW 22:50:36 63° W 22:55:05 10° N
Okean 2 3.3 22:50:04 22° S 22:52:38 87° W 22:56:45 10° N
Cosmos 1697 Rocket 4.1 22:48:42 10° N 22:53:24 26° NE 22:56:25 17° E
Cosmos 1238 Rocket 4.5 22:47:53 10° SSW 22:54:33 66° W 23:01:07 10° N
Aureole 1 Rocket 3.9 22:53:17 10° SW 22:56:22 34° WNW 22:59:11 10° N
IGS 5A 4.4 22:56:43 29° ESE 22:57:51 34° ENE 23:01:39 10° N
ISS -4.0 22:54:42 10° SW 22:58:00 81° SE 23:01:18 10° ENE
Cosmos 1892 Rocket 3.5 23:01:37 32° S 23:03:36 76° E 23:08:03 10° NNE
Cosmos 1371 Rocket 4.2 23:00:09 10° NNW 23:05:28 71° WSW 23:08:06 30° S
Cosmos 2228 3.2 23:01:33 10° N 23:05:48 55° E 23:06:54 42° SE
OAO 2 Rocket 3.9 23:05:17 10° WSW 23:09:47 35° S 23:10:01 34° S
deb Chang Zheng 4 4.1 23:07:03 10° NNE 23:11:06 39° E 23:11:27 38° ESE
Cosmos 921 Rocket 3.0 23:07:06 10° NNW 23:11:36 72° ENE 23:12:53 45° SE
Cosmos 1833 Rocket 3.3 23:11:23 33° SE 23:12:24 36° ESE 23:17:31 10° NE
Cosmos 1656 4.1 23:08:52 10° NNW 23:14:09 49° ENE 23:16:17 32° ESE
USA 245 4.2 23:16:10 24° WSW 23:16:24 24° W 23:18:32 10° NW
Cosmos 1066 Rocket 4.3 23:15:06 37° SSE 23:17:01 55° E 23:22:28 10° NNE
Cosmos 1606 Rocket 4.0 23:12:49 10° NNW 23:17:03 54° W 23:18:50 31° SSW
Cosmos 2181 Rocket 4.0 23:13:08 23° S 23:17:24 90° SSE 23:23:45 10° N
TELKOM 3 4.5 23:15:49 10° NW 23:18:17 43° NNE 23:18:42 40° NE
SL-19 R/B 4.2 23:15:58 10° NNE 23:21:16 55° E 23:22:49 41° SSE
Cosmos 1766 4.5 23:21:45 10° NNE 23:25:11 28° ENE 23:25:11 28° ENE
CZ-4 R/B 4.2 23:20:48 10° NNE 23:25:40 47° E 23:26:31 43° SE
OE (NEXTSAT) 4.3 23:22:30 10° WNW 23:26:04 86° NNE 23:26:10 83° ENE
Cosmos 1726 Rocket 4.2 23:23:48 10° NNW 23:27:59 49° W 23:29:29 33° SSW
Cosmos 1515 4.5 23:28:01 31° SW 23:29:26 47° WNW 23:33:07 10° N
NOSS 8 (F) 4.4 23:30:01 71° ENE 23:30:01 71° ENE 23:33:20 10° NE
Meteor 1-4 Rocket 2.8 23:26:54 10° N 23:30:20 56° ENE 23:30:20 56° ENE
Cosmos 1809 Rocket 4.4 23:24:39 10° N 23:30:43 69° E 23:32:55 40° SSE
USA 267 3.5 23:26:02 10° ENE 23:32:13 43° SE 23:34:02 36° SSE
Cosmos 2058 Rocket 3.4 23:30:18 10° NNW 23:34:38 59° W 23:35:51 42° SSW
PSLV R/B 4.3 23:35:54 36° N 23:35:54 36° N 23:37:46 10° N
H-2A R/B 2.6 23:33:29 30° SSW 23:35:32 46° W 23:40:22 10° NNW
CARTOSAT-1 3.5 23:36:38 58° S 23:37:27 79° W 23:41:47 10° NNW
Cosmos 1980 Rocket 3.2 23:35:12 10° N 23:40:24 36° ENE 23:42:26 27° E
DMSP B5D2-2 4.4 23:39:37 10° N 23:44:52 66° WNW 23:47:34 29° SW
Cosmos 2322 Rocket 4.3 23:44:37 10° N 23:48:24 18° NE 23:51:42 11° E
SeaSat 1 4.0 23:46:39 21° E 23:48:31 27° NE 23:52:37 10° N
Cosmos 864 Rocket 4.4 23:43:06 10° N 23:49:26 87° E 23:51:33 45° S
Meteor 2-16 Rocket 4.5 23:46:48 10° N 23:52:56 66° E 23:54:38 47° SE
